Orbital Elements at Epoch 2459000.5 (2020-May-31.0) TDB
Reference: JPL 16 (heliocentric ecliptic J2000)
Element | Value | Uncertainty (1-sigma) | Units |
e | .1410769094047464 | 8.9384e-08 | |
a | 2.267929465835678 | 2.2237e-08 | au |
q | 1.947976986047623 | 2.1315e-07 | au |
i | 24.34271775408579 | 9.0472e-06 | deg |
node | 194.1475218717058 | 1.1297e-05 | deg |
peri | 351.5873122107632 | 2.1088e-05 | deg |
M | 290.7859935897001 | 2.1422e-05 | deg |
tp | 2459240.346966648543 (2021-Jan-25.84696665) | 7.6395e-05 | TDB |
period | 1247.506284806341 3.42 | 1.8348e-05 5.023e-08 | d yr |
n | .2885757004870604 | 4.2443e-09 | deg/d |
Q | 2.587881945623733 | 2.5374e-08 | au |
|
| | Orbit Determination Parameters
Additional Information
|